Find Starlink 11671

NORAD ID: 64319 Int'l Des: 2025-124 Owner: SPXS Country: US Constellation: starlink operational
別名: STARLINK-11671 [DTC] celestrak
LEOCIRCULAR

現在のビュー

3D地球を読み込み中...

About Starlink 11671

Starlink 11671 (NORAD 64319) is a starlink constellation satellite (v2 mini d2c) launched Jun 10, 2025 by SPXS of US. It operates in LEO, CIRCULAR orbit with a mass of 960.00 kg.

次回通過

Passes for default location (London). Set your location on the main map for personalized predictions.

高度履歴

Loading altitude history...

軌道要素

1 64319U 25124C 26236.91507723 .00160881 00000-0 12307-2 0 9999
2 64319 43.0004 95.0509 0001837 274.1045 85.9613 15.70886355 69292
Epoch: Aug 24, 2026 • Age: 14 hours

現在のステータス

高度 357.7 km
遠地点 / 近地点 N/A
速度 7.70 km/s
衛星直下点 -13.39°S, 71°W
打ち上げ日 Jun 10, 2025
運用期間 1.2 years
タイプ internet

技術仕様

分類 Payload
質量 960.00 kg
乾燥質量 910.00 kg
総質量 960.00 kg
長さ 0.30 m
直径 4.10 m
スパン 29.00 m
形状 Box + pan
製造者 SPXS
バスタイプ Starlink V2MD
フェーズステータス In Orbit
所有者/国 SPXS/US

Most Searched